Simultaneous Nadir Overpasses (SNOs) Predictions

Prediction of SNOs between LANDSAT-8 and NOAA-19 Satellite Orbit:

Table of predicted SNOs for the next 14.0 days since TLE Epoch: 5/5/2017
Index Date (LANDSAT-8) Time (LANDSAT-8) Lat,Lon (LANDSAT-8) SZA (LANDSAT-8 ) Date (NOAA-19) Time (NOAA-19) Lat,Lon (NOAA-19) SZA (NOAA-19 ) Distance(km) Time Diff (sec)
1 05/06/2017 20:56:21 -76.07, 54.29 120.58 05/06/2017 20:55:26 -76.08, 54.41 120.58 3.42 55
2 05/06/2017 21:45:47 76.06,-138.12 59.39 05/06/2017 21:46:22 76.02,-138.11 59.37 3.97 35
3 05/09/2017 02:30:04 76.11, 150.99 58.86 05/09/2017 02:29:12 76.10, 150.97 58.84 2.16 52
4 05/09/2017 03:19:33 -76.04, -41.60 121.23 05/09/2017 03:20:15 -76.02, -41.52 121.24 3.27 42
5 05/11/2017 08:03:51 -76.10,-112.50 121.74 05/11/2017 08:03:06 -76.08,-112.40 121.75 3.32 45
6 05/11/2017 08:53:18 76.03, 54.92 58.18 05/11/2017 08:54:02 76.06, 54.97 58.22 3.32 44
7 05/13/2017 13:37:35 76.13, -15.84 57.74 05/13/2017 13:36:53 76.14, -15.98 57.74 3.68 42
8 05/13/2017 14:27:04 -76.06, 151.58 122.34 05/13/2017 14:27:56 -76.04, 151.63 122.36 3.15 52
9 05/15/2017 19:11:22 -76.11, 80.66 122.81 05/15/2017 19:10:47 -76.11, 80.71 122.81 1.48 35
10 05/15/2017 20:00:48 76.08,-111.78 57.16 05/15/2017 20:01:42 76.06,-111.84 57.14 2.92 54
11 05/18/2017 00:45:06 76.13, 177.28 56.71 05/18/2017 00:44:33 76.15, 177.20 56.72 3.28 33




NCC Satellite Simultaneous Nadir Overpasses (SNOs) Prediction Service
